Location: Newark
(36.6294°S, 72.9458°W)
Time: 10:08:32
(UTC+00:00)

ISS - Visible Passes

Search period start: 28 January 2020 00:00
Search period end: 07 February 2020 00:00
Orbit: 416 x 423 km, 51.6° (Epoch: 28 January)

Date Brightness Start Highest point End Pass type
(mag) Time Alt. Az. Time Alt. Az. Time Alt. Az.
28 Jan -0.7 07:18:58 11° E 07:18:58 11° E 07:19:17 10° E visible
28 Jan -3.2 08:51:55 23° WNW 08:53:45 48° SW 08:57:05 10° SE visible
29 Jan -3.8 08:06:17 82° SSE 08:06:17 82° SSE 08:09:36 10° SE visible
30 Jan -1.3 07:20:35 21° ESE 07:20:35 21° ESE 07:21:58 10° ESE visible
30 Jan -1.7 08:53:32 12° WSW 08:55:39 20° SSW 08:58:15 10° SSE visible
31 Jan -2.3 08:07:47 29° SW 08:07:55 29° SSW 08:10:58 10° SSE visible
01 Feb -1.4 07:21:59 24° SSE 07:21:59 24° SSE 07:23:34 10° SE visible
01 Feb -0.9 08:56:45 10° SW 08:57:44 11° SSW 08:58:43 10° S visible
02 Feb -1.2 08:09:05 14° SW 08:09:52 14° SSW 08:11:50 10° SSE visible
03 Feb -1.0 07:23:13 17° S 07:23:13 17° S 07:24:40 10° SSE visible
04 Feb -0.1 06:37:18 10° SSE 06:37:18 10° SSE 06:37:20 10° SSE visible
05 Feb -0.6 07:24:20 11° SSW 07:24:20 11° SSW 07:25:02 10° S visible
